[Iaude] MPEC B51: 2024 BA1 [a=2.06,e=0.51,i=1.7,H=26.9]
    mpec at marsden.cfa.harvard.edu 
    mpec at marsden.cfa.harvard.edu
       
    Fri Jan 19 16:08:26 EST 2024
    
    
  
M.P.E.C. 2024-B51                              Issued 2024 January 19, 21:06 UT
     The Minor Planet Electronic Circulars contain information on unusual
         minor planets, routine data on comets and natural satellites,
         and occasional editorial announcements.  They are published
    on behalf of Division F of the International Astronomical Union by the
          Minor Planet Center, Smithsonian Astrophysical Observatory,
                          Cambridge, MA 02138, U.S.A.
			  
             Prepared using the Tamkin Foundation Computer Network
                              MPC at CFA.HARVARD.EDU
            URL https://www.minorplanetcenter.net/    ISSN 1523-6714
                                    2024 BA1                                    
Observations:
     K24B01A*1C2024 01 19.09989806 15 05.774+33 34 18.37         20.18GVEB051G96
     K24B01A 1C2024 01 19.10555406 15 15.646+33 34 08.11         20.00GVEB051G96
     K24B01A 1C2024 01 19.11120606 15 25.441+33 33 57.17         20.10GVEB051G96
     K24B01A 1C2024 01 19.11688006 15 35.294+33 33 45.86         19.75GVEB051G96
     K24B01A KC2024 01 19.19008006 17 41.470+33 31 03.20               VEB051I52
     K24B01A KC2024 01 19.19097106 17 42.980+33 31 00.70               VEB051I52
     K24B01A KC2024 01 19.19186106 17 44.540+33 30 58.90               VEB051I52
     K24B01A KC2024 01 19.19275106 17 46.040+33 30 56.60               VEB051I52
     K24B01A KC2024 01 19.19365106 17 47.580+33 30 53.60               VEB051I52
     K24B01A KC2024 01 19.76383006 36 13.903+32 55 01.34         19.3 GVEB051J95
     K24B01A KB2024 01 19.76818806 36 24.45 +32 55 18.4          19.9 GXEB051I93
     K24B01A KB2024 01 19.77283406 36 33.53 +32 55 02.8          20.3 GXEB051I93
     K24B01A KC2024 01 19.77510106 36 35.894+32 54 20.81         19.7 GVEB051J95
     K24B01A KB2024 01 19.77740006 36 42.34 +32 54 46.4          19.1 GXEB051I93
     K24B01A KC2024 01 19.78592406 36 57.055+32 53 41.96         20.1 GVEB051J95
Observer details:
G96 Mt. Lemmon Survey.  Observer A. R. Gibbs.  Measurers T. Beuden, V. F.
    Carvajal, D. Fay, J. B. Fazekas, D. C. Fuls, A. R. Gibbs, A. D. Grauer, H.
    Groeller, J. K. Hogan, R. A. Kowalski, S. M. Larson, G. J. Leonard, D.
    Rankin, R. L. Seaman, F. C. Shelly, K. W. Wierzchos.  1.5-m reflector +
    10K CCD.
I52 Steward Observatory, Mt. Lemmon Station.  Observer R. A. Kowalski.
    Measurers E. C. Beshore, D. Fay, J. B. Fazekas, D. C. Fuls, A. R. Gibbs,
    A. D. Grauer, H. Groeller, J. K. Hogan, R. A. Kowalski, S. M. Larson, G.
    J. Leonard, D. Rankin, R. L. Seaman, F. C. Shelly, K. W. Wierzchos.  1.0-m
    prime focus + CCD.
I93 St Pardon de Conques.  Observer F. Losse.  0.40-m f/3.7 reflector + CMO.
J95 Great Shefford.  Observer P. Birtwhistle.  0.41-m f/6.3 Schmidt-Cassegrain
    + CCD.
Orbital elements:
2024 BA1                                                 Earth MOID = 0.0202 AU
Epoch 2023 Sept. 13.0 TT = JDT 2460200.5                Veres                   
M 315.57116              (2000.0)            P               Q                  
n   0.33333897     Peri.  177.31317     -0.55534641     -0.83126205             
a   2.0600542      Node   306.42021     +0.76242986     -0.49722265             
e   0.5117046      Incl.    1.73530     +0.33210100     -0.24854183             
P   2.96           H   26.91          G   0.15           U   9                  
Residuals in seconds of arc
240119 G96  0.3-  0.2-    240119 I52  0.7-  0.6-    240119 I93  0.1-  0.2-
240119 G96  0.2+  0.2+    240119 I52  0.3-  0.2-    240119 I93  0.3+  0.3+
240119 G96  0.0   0.1+    240119 I52  0.7-  0.3-    240119 J95  0.3-  0.2-
240119 G96  0.1+  0.1-    240119 I52  0.8-  1.0-    240119 I93  0.5-  0.2-
240119 I52  0.4-  0.4-    240119 J95  0.3+  0.3+    240119 J95  0.1+  0.1-
Ephemeris:
2024 BA1                 a,e,i = 2.06, 0.51, 2                   q = 1.0059
Date    TT    R. A. (2000) Decl.     Delta      r    Elong.  Phase     V
2023 12 20    03 11 52.9 +28 09 31   0.1305  1.0927   144.5    31.6    24.0
...
2024 01 04    03 27 18.5 +30 01 11   0.07478 1.0360   133.2    43.8    23.0
...
2024 01 12    04 09 14.2 +32 26 48   0.04722 1.0171   134.4    43.7    22.0
...
2024 01 18    05 44 01.9 +34 04 08   0.02940 1.0088   147.9    31.2    20.6
2024 01 19    06 11 46.2 +33 39 18   0.02707 1.0080   152.6    26.7    20.3
2024 01 20    06 43 55.1 +32 40 24   0.02507 1.0072   158.2    21.3    20.0
...
2024 01 26    10 17 57.8 +11 26 08   0.02414 1.0060   152.9    26.4    20.0
...
2024 02 03    12 16 40.3 -08 25 32   0.04523 1.0127   125.9    52.0    22.1
...
2024 02 18    13 02 41.0 -15 47 36   0.09623 1.0495   127.5    48.3    23.7
M. P. C. Staff               (C) Copyright 2024 MPC           M.P.E.C. 2024-B51
    
    
More information about the Iaude
mailing list